weather.gov     
National Weather Service

Miscellaneous Local Product
NWS Homepage
This page is being discontinued on March 12, 2014.
The same data is available at this site. Please update your bookmarks.
Thank you, and we apologize for the inconvenience.
Please send an email to SR-SRH.Webmaster@noaa.gov with any concerns.


Current Version
Previous Version:    01  02  03  04  05  06  07  08  09  10  11  12  13  14  15  16  17  18  19  20  21  22  23  24  25  26  27  28  29  30  
   31  32  33  34  35  36  37  38  39  40  41  42  43  44  45  46  47  48  49  50  51  52  53  54  55  56  57  58  59  60  
[Printable]
511
AXUS43 KGID 240702
MISGRI

GID CWA HOURLY WEATHER ROUNDUP
NATIONAL WEATHER SERVICE HASTINGS NE
200 AM CDT THU APR 24 2014

NOTE: "FAIR" INDICATES FEW OR NO CLOUDS BELOW 12,000 FEET WITH NO
SIGNIFICANT WEATHER AND/OR OBSTRUCTIONS TO VISIBILITY.

...SOUTH CENTRAL NEBRASKA...

CITY           SKY/WX    TMP DP  RH WIND       PRES   REMARKS
GRAND ISLAND   LGT RAIN  56  54  93 S3        29.66S FOG
HASTINGS       RAIN      56  52  86 NW9       29.67R FOG
KEARNEY        CLOUDY    54  48  82 NW9       29.74R
ORD            LGT RAIN  51  44  77 N13       29.69R
YORK           LGT RAIN  54  54 100 SE6       29.67R
AURORA         HVY RAIN  55  55 100 E8        29.64S
LEXINGTON      CLOUDY    56  41  56 NW14      29.77R
HOLDREGE       LGT RAIN  54  47  79 NW15      29.76R
HEBRON         HVY RAIN  55  53  91 W5        29.69R

...NEBRASKA PANHANDLE...

CITY           SKY/WX    TMP DP  RH WIND       PRES   REMARKS
CHADRON        CLOUDY    45  35  68 SW3       29.87S
ALLIANCE       CLOUDY    44  36  73 NW9       29.86R
SCOTTSBLUFF    CLOUDY    46  35  65 NW9       29.89S
SIDNEY         CLOUDY    48  30  49 N14       29.87R

...WESTERN AND NORTH CENTRAL NEBRASKA...

CITY           SKY/WX    TMP DP  RH WIND       PRES   REMARKS
VALENTINE      CLOUDY    50  36  58 NW12      29.79R
AINSWORTH      CLOUDY    53  37  55 NW20G25   29.77R
ONEILL         CLOUDY    55  38  52 NW16      29.69F
BROKEN BOW     CLOUDY    53  38  56 N23       29.73R
IMPERIAL       CLOUDY    52  31  44 CALM      29.79F
NORTH PLATTE   CLOUDY    56  32  40 NW16G28   29.78F
MCCOOK         CLOUDY    58  33  39 NW32G40   29.78R

...EASTERN NEBRASKA...

CITY           SKY/WX    TMP DP  RH WIND       PRES   REMARKS
NORFOLK        LGT RAIN  55  53  93 CALM      29.63F FOG
SO SIOUX CITY  RAIN      51  47  86 SW12      29.66R
TEKAMAH        CLOUDY    51  44  77 NE15      29.64F
COLUMBUS       CLOUDY    52  46  82 SE8       29.65R
ALBION         RAIN      55  53  91 NW21      29.66R
OMAHA EPPLEY   CLOUDY    49  45  86 N13       29.65F
OFFUTT AFB     MOCLDY    52  48  84 N12       29.63F
MILLARD        MOCLDY    50  45  81 N5        29.66F
LINCOLN        CLOUDY    54  45  71 NE14      29.62F
NEBRASKA CITY  MOCLDY    59  43  54 N3        29.60F
BEATRICE       MOCLDY    54  45  72 N14G22    29.61R
FALLS CITY     CLOUDY    69  47  45 S10       29.59R

...NORTHERN KANSAS...

CITY           SKY/WX    TMP DP  RH WIND       PRES   REMARKS
GOODLAND       CLOUDY    52  26  36 NW26G33   29.83S
HILL CITY      LGT RAIN  54  48  80 N10       29.73S
PHILLIPSBURG   LGT RAIN  55  55 100 NW8       29.73R
SMITH CENTER   RAIN      54  52  94 NW16      29.71S
BELOIT         CLOUDY    59  57  94 N9        29.65S
HAYS           CLOUDY    54  50  87 N26G35    29.69R
RUSSELL        HVY RAIN  55  53  93 N18       29.66R
CONCORDIA      LGT RAIN  58  51  78 NW13      29.66R
SALINA         PTCLDY    69  51  52 W20G28    29.62R
TOPEKA         CLOUDY    72  53  51 SE16G28   29.54F




U.S. Dept. of Commerce
NOAA National Weather Service
1325 East West Highway
Silver Spring, MD 20910
E-mail: w-nws.webmaster@noaa.gov
Page last modified: May 16, 2007
NATIONAL WEATHER SERVICE: for Safety, for Work, for Fun - FOR LIFE